sat.trackr.live / text

‹ back to catalog

PEARL-1B

NORAD 68980 · 2026-100A

PAYLOAD ACTIVE UNKNOWN

§ Identity

Operator
Country
ROC
Launch date
2026-05-03
Launch site
AFWTR
Launch vehicle
Mass (kg)
RCS (m²)

External: N2YO · Heavens-Above · Gunter

§ Orbital elements

Epoch: 2026-09-20T03:45:38.994048Z

Period
96.59 min
Inclination
97.7229°
Eccentricity
0.0006844
Mean motion
14.90877750 rev/d
Perigee alt
590.4 km
Apogee alt
600.0 km
Semi-major
6,973.3 km
B*
1.2382e-4
RAAN
158.5422°
Arg perigee
180.2339°
Mean anomaly
179.8877°
Rev number
2,083

§ Raw data

PEARL-1B1 68980U 26100A   26263.15670132  .00001166  00000+0  12382-3 0  99962 68980  97.7229 158.5422 0006844 180.2339 179.8877 14.90877750 20832

JSON: /api/v1/satellites/68980 · /tle

For live sub-satellite position, see the globe view (requires WebGL).

§ Visibility from observer

Set your observer location to see the next 7 days of passes ≥ 10°. The values pass through the URL so the page stays shareable.

No JS? Fill the form by hand. The geolocation button needs JavaScript.